QPF
0.03 0.03 0.02 0.01 0.01 0.00 0.00 0.01 0.02 0.01 0.01 0.01 0.00 0.00 0.00 0.00 0.00 0.00 0.00 0.00 0.00 0.00 0.00 0.00 0.00 0.00 0.00 0.00 0.00 0.00 0.00 0.00 0.00 0.00 0.00 0.00 0.00 0.00
0.03 0.02 0.02 0.01 0.01 0.00 0.00 0.00 0.00 0.01 0.01 0.01 0.00 0.00 0.00 0.00 0.00 0.00 0.00 0.00 0.00 0.00 0.00 0.00 0.00 0.00 0.00 0.00 0.00 0.00 0.00 0.00 0.00 0.00 0.00 0.00 0.00 0.00
0.02 0.01 0.02 0.01 0.01 0.01 0.00 0.00 0.00 0.00 0.01 0.01 0.00 0.00 0.00 0.01 0.01 0.00 0.00 0.00 0.00 0.00 0.00 0.00 0.00 0.00 0.00 0.00 0.00 0.00 0.00 0.00 0.00 0.00 0.00 0.00 0.00 0.00
0.02 0.02 0.02 0.02 0.01 0.01 0.01 0.00 0.00 0.00 0.00 0.01 0.01 0.00 0.00 0.00 0.01 0.01 0.00 0.00 0.00 0.00 0.00 0.00 0.00 0.00 0.00 0.00 0.00 0.00 0.00 0.00 0.00 0.00 0.00 0.00 0.00 0.00
0.02 0.02 0.02 0.02 0.02 0.01 0.00 0.00 0.01 0.00 0.00 0.00 0.00 0.00 0.00 0.00 0.00 0.00 0.00 0.00 0.00 0.00 0.00 0.00 0.00 0.00 0.00 0.00 0.00 0.00 0.00 0.00 0.00 0.00 0.00 0.00 0.00 0.00
0.03 0.02 0.02 0.02 0.02 0.02 0.01 0.01 0.01 0.01 0.01 0.00 0.00 0.00 0.00 0.00 0.00 0.00 0.00 0.00 0.00 0.00 0.00 0.00 0.00 0.00 0.00 0.00 0.00 0.00 0.00 0.00 0.00 0.00 0.00 0.00 0.00 0.00
0.03 0.02 0.02 0.02 0.02 0.02 0.01 0.01 0.01 0.01 0.01 0.01 0.00 0.00 0.00 0.01 0.00 0.00 0.00 0.00 0.00 0.00 0.00 0.00 0.00 0.00 0.00 0.00 0.00 0.00 0.00 0.00 0.00 0.00 0.00 0.00 0.00 0.00
0.04 0.03 0.03 0.02 0.02 0.02 0.02 0.02 0.02 0.02 0.02 0.01 0.01 0.00 0.01 0.01 0.01 0.00 0.00 0.00 0.00 0.00 0.00 0.00 0.00 0.00 0.00 0.00 0.00 0.00 0.00 0.00 0.00 0.00 0.00 0.00 0.00 0.00
0.06 0.06 0.04 0.03 0.03 0.02 0.02 0.02 0.02 0.02 0.02 0.02 0.01 0.01 0.01 0.01 0.01 0.01 0.01 0.01 0.01 0.00 0.00 0.00 0.00 0.00 0.00 0.00 0.00 0.00 0.00 0.00 0.00 0.00 0.00 0.00 0.00 0.00
0.05 0.06 0.06 0.06 0.05 0.04 0.04 0.03 0.03 0.03 0.02 0.02 0.02 0.02 0.01 0.01 0.01 0.01 0.01 0.01 0.01 0.00 0.01 0.00 0.00 0.00 0.00 0.00 0.00 0.00 0.00 0.00 0.00 0.00 0.00 0.00 0.00 0.00
0.04 0.04 0.05 0.06 0.07 0.06 0.05 0.04 0.04 0.04 0.03 0.03 0.02 0.02 0.02 0.01 0.01 0.01 0.01 0.01 0.01 0.01 0.02 0.01 0.01 0.00 0.00 0.00 0.00 0.00 0.00 0.00 0.00 0.00 0.00 0.00 0.00 0.00
0.04 0.05 0.04 0.04 0.04 0.04 0.04 0.04 0.04 0.04 0.04 0.03 0.02 0.02 0.01 0.01 0.01 0.01 0.01 0.01 0.01 0.01 0.01 0.01 0.01 0.01 0.01 0.00 0.01 0.01 0.01 0.01 0.01 0.01 0.00 0.00 0.00 0.00
0.05 0.05 0.05 0.04 0.03 0.03 0.03 0.05 0.05 0.05 0.05 0.04 0.03 0.02 0.02 0.02 0.02 0.02 0.01 0.02 0.02 0.02 0.02 0.02 0.01 0.01 0.02 0.01 0.01 0.01 0.01 0.01 0.01 0.01 0.01 0.00 0.00 0.00
0.05 0.05 0.06 0.06 0.05 0.04 0.03 0.03 0.03 0.03 0.03 0.04 0.04 0.04 0.04 0.04 0.03 0.02 0.02 0.01 0.01 0.01 0.01 0.02 0.02 0.02 0.02 0.01 0.01 0.00 0.01 0.01 0.02 0.02 0.01 0.01 0.01 0.01
0.04 0.06 0.06 0.06 0.05 0.05 0.04 0.04 0.04 0.04 0.04 0.04 0.05 0.04 0.04 0.03 0.03 0.02 0.02 0.02 0.02 0.02 0.01 0.02 0.02 0.02 0.02 0.02 0.01 0.01 0.01 0.01 0.01 0.02 0.02 0.03 0.02 0.02
0.05 0.05 0.05 0.05 0.04 0.04 0.05 0.05 0.05 0.05 0.05 0.04 0.04 0.04 0.04 0.04 0.04 0.04 0.04 0.03 0.03 0.02 0.02 0.02 0.02 0.02 0.02 0.02 0.02 0.02 0.02 0.02 0.01 0.01 0.02 0.02 0.02 0.03
0.10 0.08 0.07 0.06 0.05 0.06 0.07 0.07 0.06 0.06 0.05 0.05 0.05 0.05 0.05 0.05 0.05 0.05 0.04 0.04 0.03 0.03 0.02 0.03 0.03 0.03 0.02 0.02 0.02 0.01 0.02 0.02 0.02 0.02 0.02 0.02 0.02 0.02
0.12 0.10 0.09 0.09 0.08 0.08 0.07 0.06 0.06 0.06 0.06 0.06 0.06 0.05 0.05 0.05 0.04 0.04 0.04 0.04 0.04 0.03 0.03 0.03 0.04 0.03 0.03 0.03 0.02 0.02 0.02 0.02 0.02 0.02 0.03 0.02 0.02 0.01
0.12 0.12 0.12 0.12 0.12 0.11 0.11 0.11 0.11 0.09 0.08 0.08 0.07 0.06 0.05 0.05 0.04 0.05 0.05 0.05 0.05 0.05 0.04 0.04 0.05 0.06 0.06 0.05 0.04 0.03 0.04 0.04 0.04 0.03 0.03 0.02 0.02 0.02
0.14 0.13 0.13 0.13 0.14 0.14 0.13 0.11 0.09 0.09 0.08 0.07 0.06 0.05 0.05 0.04 0.05 0.06 0.06 0.07 0.07 0.07 0.07 0.07 0.08 0.08 0.08 0.08 0.07 0.05 0.03 0.03 0.04 0.04 0.04 0.03 0.03 0.03
0.16 0.16 0.15 0.14 0.13 0.12 0.11 0.09 0.08 0.07 0.05 0.04 0.04 0.04 0.04 0.04 0.05 0.05 0.06 0.08 0.08 0.08 0.09 0.09 0.10 0.08 0.06 0.05 0.05 0.04 0.04 0.03 0.03 0.04 0.03 0.03 0.03 0.02
0.14 0.12 0.11 0.10 0.09 0.08 0.07 0.06 0.05 0.05 0.05 0.05 0.05 0.05 0.05 0.05 0.05 0.06 0.06 0.06 0.06 0.06 0.06 0.06 0.06 0.05 0.05 0.05 0.05 0.05 0.05 0.05 0.04 0.04 0.03 0.03 0.03 0.02
0.11 0.09 0.08 0.07 0.06 0.06 0.06 0.06 0.06 0.07 0.07 0.07 0.06 0.06 0.06 0.07 0.06 0.05 0.05 0.05 0.05 0.05 0.06 0.06 0.05 0.05 0.04 0.05 0.05 0.05 0.04 0.04 0.03 0.03 0.03 0.02 0.02 0.01
MSLP
1017.26 1017.37 1017.46 1017.53 1017.58 1017.60 1017.59 1017.54 1017.46 1017.36 1017.25 1017.16 1017.08 1017.06 1017.09 1017.19 1017.35 1017.57 1017.84 1018.12 1018.41 1018.67 1018.88 1019.03 1019.11 1019.13 1019.09 1019.00 1018.89 1018.76 1018.63 1018.50 1018.38 1018.27 1018.15 1018.04 1017.92 1017.80
1017.12 1017.23 1017.32 1017.39 1017.44 1017.46 1017.46 1017.44 1017.39 1017.31 1017.22 1017.13 1017.05 1017.00 1016.99 1017.03 1017.13 1017.27 1017.46 1017.68 1017.91 1018.12 1018.31 1018.45 1018.54 1018.57 1018.55 1018.50 1018.41 1018.30 1018.18 1018.05 1017.92 1017.79 1017.65 1017.50 1017.34 1017.18
1016.91 1017.03 1017.13 1017.22 1017.29 1017.35 1017.39 1017.41 1017.41 1017.38 1017.33 1017.27 1017.20 1017.12 1017.07 1017.04 1017.05 1017.10 1017.19 1017.31 1017.44 1017.58 1017.71 1017.82 1017.90 1017.94 1017.94 1017.92 1017.86 1017.79 1017.70 1017.59 1017.47 1017.34 1017.19 1017.02 1016.84 1016.66
1016.67 1016.82 1016.95 1017.07 1017.18 1017.29 1017.38 1017.46 1017.52 1017.55 1017.55 1017.52 1017.45 1017.37 1017.27 1017.18 1017.10 1017.04 1017.01 1017.01 1017.04 1017.08 1017.13 1017.18 1017.22 1017.26 1017.27 1017.27 1017.26 1017.22 1017.18 1017.11 1017.02 1016.91 1016.78 1016.61 1016.42 1016.22
1016.47 1016.65 1016.81 1016.97 1017.12 1017.27 1017.42 1017.55 1017.67 1017.75 1017.79 1017.78 1017.73 1017.63 1017.50 1017.34 1017.18 1017.02 1016.88 1016.76 1016.67 1016.60 1016.56 1016.54 1016.53 1016.54 1016.55 1016.57 1016.58 1016.60 1016.60 1016.58 1016.54 1016.47 1016.37 1016.22 1016.05 1015.84
1016.32 1016.52 1016.71 1016.89 1017.08 1017.26 1017.44 1017.61 1017.75 1017.86 1017.93 1017.93 1017.88 1017.78 1017.62 1017.42 1017.19 1016.96 1016.72 1016.50 1016.30 1016.14 1016.00 1015.90 1015.83 1015.80 1015.79 1015.81 1015.85 1015.89 1015.94 1015.98 1015.99 1015.97 1015.90 1015.80 1015.65 1015.46
1016.21 1016.42 1016.62 1016.81 1017.01 1017.19 1017.38 1017.54 1017.69 1017.80 1017.86 1017.86 1017.80 1017.69 1017.52 1017.29 1017.04 1016.76 1016.47 1016.18 1015.91 1015.67 1015.45 1015.27 1015.14 1015.06 1015.01 1015.01 1015.05 1015.11 1015.19 1015.27 1015.32 1015.35 1015.34 1015.27 1015.15 1014.98
1016.09 1016.29 1016.47 1016.65 1016.82 1016.99 1017.14 1017.28 1017.39 1017.46 1017.50 1017.49 1017.42 1017.30 1017.13 1016.92 1016.66 1016.38 1016.09 1015.78 1015.47 1015.18 1014.91 1014.68 1014.48 1014.34 1014.25 1014.21 1014.23 1014.29 1014.37 1014.46 1014.55 1014.61 1014.63 1014.59 1014.50 1014.35
1015.86 1016.03 1016.19 1016.34 1016.47 1016.59 1016.69 1016.77 1016.83 1016.85 1016.85 1016.81 1016.73 1016.62 1016.47 1016.30 1016.09 1015.85 1015.58 1015.30 1015.00 1014.70 1014.41 1014.13 1013.89 1013.69 1013.55 1013.46 1013.43 1013.46 1013.53 1013.61 1013.70 1013.77 1013.79 1013.77 1013.68 1013.54
1015.42 1015.57 1015.69 1015.81 1015.90 1015.98 1016.02 1016.04 1016.04 1016.01 1015.97 1015.90 1015.83 1015.74 1015.64 1015.52 1015.38 1015.22 1015.02 1014.80 1014.55 1014.28 1013.99 1013.69 1013.42 1013.17 1012.97 1012.82 1012.74 1012.71 1012.73 1012.78 1012.84 1012.88 1012.89 1012.84 1012.74 1012.57
1014.75 1014.87 1014.98 1015.08 1015.15 1015.19 1015.20 1015.18 1015.14 1015.08 1015.01 1014.94 1014.87 1014.81 1014.77 1014.72 1014.67 1014.60 1014.51 1014.37 1014.18 1013.96 1013.69 1013.40 1013.10 1012.82 1012.56 1012.36 1012.21 1012.11 1012.06 1012.05 1012.04 1012.03 1011.99 1011.89 1011.74 1011.53
1013.86 1013.98 1014.10 1014.21 1014.29 1014.34 1014.35 1014.32 1014.27 1014.20 1014.13 1014.07 1014.03 1014.02 1014.03 1014.06 1014.10 1014.12 1014.11 1014.06 1013.95 1013.78 1013.54 1013.27 1012.96 1012.65 1012.35 1012.08 1011.86 1011.69 1011.57 1011.47 1011.39 1011.29 1011.17 1011.00 1010.79 1010.51
1012.86 1013.01 1013.17 1013.32 1013.45 1013.55 1013.60 1013.61 1013.59 1013.54 1013.50 1013.47 1013.46 1013.49 1013.56 1013.65 1013.75 1013.85 1013.91 1013.93 1013.88 1013.75 1013.55 1013.28 1012.97 1012.64 1012.30 1011.99 1011.70 1011.46 1011.25 1011.07 1010.89 1010.71 1010.50 1010.24 1009.94 1009.59
1011.92 1012.12 1012.34 1012.57 1012.78 1012.95 1013.08 1013.16 1013.20 1013.21 1013.21 1013.22 1013.24 1013.31 1013.41 1013.53 1013.68 1013.81 1013.92 1013.97 1013.95 1013.85 1013.67 1013.41 1013.09 1012.74 1012.37 1012.01 1011.67 1011.36 1011.08 1010.81 1010.55 1010.27 1009.97 1009.62 1009.24 1008.81
1011.21 1011.48 1011.78 1012.10 1012.40 1012.68 1012.90 1013.06 1013.18 1013.25 1013.30 1013.34 1013.39 1013.47 1013.57 1013.70 1013.84 1013.98 1014.08 1014.14 1014.12 1014.02 1013.84 1013.57 1013.25 1012.87 1012.47 1012.07 1011.68 1011.31 1010.96 1010.62 1010.28 1009.92 1009.54 1009.12 1008.66 1008.17
1010.90 1011.23 1011.61 1012.01 1012.41 1012.77 1013.08 1013.32 1013.50 1013.63 1013.71 1013.77 1013.83 1013.89 1013.97 1014.07 1014.17 1014.27 1014.34 1014.36 1014.32 1014.19 1013.98 1013.70 1013.35 1012.95 1012.52 1012.08 1011.64 1011.22 1010.81 1010.41 1010.00 1009.58 1009.14 1008.66 1008.15 1007.62
1011.09 1011.47 1011.90 1012.35 1012.81 1013.23 1013.60 1013.89 1014.11 1014.26 1014.36 1014.41 1014.44 1014.46 1014.49 1014.53 1014.57 1014.60 1014.60 1014.57 1014.47 1014.30 1014.05 1013.73 1013.34 1012.91 1012.44 1011.96 1011.47 1011.00 1010.54 1010.09 1009.63 1009.17 1008.69 1008.18 1007.64 1007.08
1011.80 1012.19 1012.63 1013.10 1013.56 1014.00 1014.37 1014.67 1014.89 1015.03 1015.09 1015.11 1015.09 1015.05 1015.00 1014.96 1014.91 1014.87 1014.80 1014.69 1014.53 1014.30 1014.00 1013.63 1013.20 1012.72 1012.20 1011.67 1011.13 1010.61 1010.10 1009.60 1009.11 1008.62 1008.12 1007.60 1007.06 1006.51
1012.93 1013.29 1013.69 1014.13 1014.56 1014.95 1015.28 1015.54 1015.71 1015.79 1015.80 1015.75 1015.65 1015.53 1015.40 1015.27 1015.15 1015.02 1014.87 1014.70 1014.48 1014.19 1013.84 1013.42 1012.94 1012.40 1011.83 1011.23 1010.64 1010.05 1009.49 1008.95 1008.43 1007.93 1007.43 1006.92 1006.40 1005.87
1014.31 1014.61 1014.95 1015.31 1015.66 1015.97 1016.22 1016.39 1016.47 1016.47 1016.39 1016.25 1016.07 1015.86 1015.65 1015.44 1015.24 1015.04 1014.83 1014.60 1014.33 1014.00 1013.60 1013.13 1012.59 1011.99 1011.36 1010.69 1010.03 1009.39 1008.77 1008.19 1007.65 1007.14 1006.65 1006.17 1005.68 1005.19
1015.76 1015.98 1016.23 1016.49 1016.74 1016.94 1017.08 1017.14 1017.12 1017.01 1016.83 1016.59 1016.32 1016.02 1015.73 1015.45 1015.19 1014.94 1014.68 1014.41 1014.10 1013.74 1013.31 1012.79 1012.21 1011.55 1010.85 1010.12 1009.39 1008.68 1008.01 1007.40 1006.84 1006.33 1005.86 1005.41 1004.98 1004.54
1017.09 1017.24 1017.40 1017.56 1017.69 1017.78 1017.81 1017.76 1017.62 1017.41 1017.12 1016.79 1016.43 1016.06 1015.69 1015.35 1015.04 1014.75 1014.47 1014.17 1013.84 1013.46 1013.00 1012.46 1011.83 1011.13 1010.37 1009.58 1008.79 1008.03 1007.31 1006.66 1006.09 1005.59 1005.15 1004.75 1004.38 1004.01
1018.18 1018.26 1018.35 1018.43 1018.47 1018.47 1018.39 1018.24 1018.01 1017.69 1017.32 1016.90 1016.45 1016.01 1015.58 1015.19 1014.84 1014.51 1014.21 1013.90 1013.56 1013.16 1012.69 1012.13 1011.48 1010.75 1009.96 1009.12 1008.29 1007.48 1006.74 1006.07 1005.49 1005.01 1004.61 1004.27 1003.97 1003.67
Thickness
5737 5735 5736 5739 5738 5739 5738 5737 5730 5725 5727 5731 5732 5733 5730 5728 5724 5722 5721 5716 5714 5712 5710 5708 5706 5705 5704 5702 5701 5699 5698 5697 5695 5694 5692 5691 5690 5689
5735 5735 5734 5738 5738 5737 5737 5736 5735 5731 5728 5734 5732 5734 5729 5729 5723 5722 5720 5717 5714 5712 5710 5708 5706 5704 5703 5701 5700 5698 5697 5695 5694 5692 5691 5689 5688 5687
5734 5733 5732 5734 5735 5736 5735 5734 5733 5732 5727 5731 5733 5731 5726 5724 5723 5721 5721 5718 5717 5713 5710 5708 5706 5704 5702 5701 5699 5697 5696 5694 5692 5690 5689 5687 5686 5684
5732 5732 5732 5732 5730 5732 5732 5732 5731 5730 5727 5725 5728 5728 5724 5723 5721 5719 5721 5721 5719 5715 5711 5708 5705 5703 5701 5700 5698 5696 5694 5692 5690 5688 5686 5685 5683 5682
5732 5731 5730 5730 5727 5730 5728 5730 5730 5730 5727 5726 5725 5726 5725 5723 5720 5718 5719 5716 5716 5716 5711 5708 5705 5703 5701 5699 5697 5695 5692 5690 5688 5686 5684 5682 5680 5678
5730 5729 5729 5728 5727 5726 5726 5725 5726 5725 5725 5723 5724 5724 5722 5721 5717 5716 5716 5716 5715 5715 5712 5709 5705 5702 5700 5698 5696 5693 5690 5688 5685 5683 5681 5679 5677 5675
5726 5727 5727 5727 5726 5724 5725 5725 5723 5722 5722 5721 5721 5720 5719 5716 5714 5715 5714 5713 5713 5712 5709 5708 5706 5704 5702 5698 5695 5691 5688 5685 5682 5680 5678 5675 5673 5671
5723 5724 5725 5723 5721 5718 5718 5717 5717 5717 5718 5717 5717 5716 5713 5714 5712 5710 5709 5706 5704 5710 5704 5703 5703 5702 5700 5698 5695 5689 5685 5681 5678 5676 5673 5671 5669 5667
5722 5721 5723 5725 5720 5719 5715 5711 5711 5710 5709 5710 5711 5711 5710 5709 5705 5703 5701 5699 5698 5701 5698 5696 5699 5697 5696 5695 5689 5684 5680 5677 5674 5671 5669 5666 5664 5662
5719 5719 5718 5719 5719 5716 5715 5713 5712 5711 5707 5705 5706 5706 5705 5703 5700 5697 5695 5693 5693 5693 5691 5688 5692 5691 5692 5689 5684 5680 5676 5672 5669 5666 5663 5661 5658 5656
5717 5717 5716 5715 5713 5709 5708 5708 5708 5708 5706 5702 5700 5698 5696 5693 5691 5690 5690 5687 5688 5689 5688 5682 5683 5683 5684 5683 5680 5675 5670 5667 5663 5660 5657 5654 5651 5648
5713 5714 5710 5710 5708 5704 5703 5703 5701 5701 5701 5699 5694 5692 5690 5687 5684 5681 5683 5681 5681 5680 5682 5677 5675 5672 5671 5675 5673 5669 5664 5661 5657 5654 5650 5647 5643 5639
5711 5711 5711 5705 5701 5697 5696 5697 5696 5694 5694 5693 5692 5690 5687 5684 5681 5677 5675 5673 5672 5672 5672 5667 5664 5661 5658 5660 5662 5660 5657 5655 5651 5648 5644 5640 5636 5631
5708 5708 5706 5699 5695 5691 5688 5688 5686 5683 5686 5686 5685 5683 5681 5679 5677 5673 5669 5665 5662 5660 5658 5655 5653 5649 5647 5647 5648 5649 5647 5645 5642 5639 5636 5633 5628 5624
5702 5699 5695 5691 5687 5684 5681 5679 5676 5677 5677 5677 5676 5674 5672 5670 5666 5663 5660 5657 5653 5651 5648 5644 5641 5639 5636 5635 5636 5636 5634 5634 5632 5629 5627 5623 5620 5617
5692 5690 5685 5682 5679 5678 5676 5672 5670 5670 5668 5667 5666 5663 5661 5658 5656 5653 5650 5647 5644 5643 5641 5637 5632 5629 5626 5625 5624 5623 5622 5621 5620 5617 5614 5611 5609 5606
5688 5685 5682 5678 5675 5672 5669 5666 5664 5661 5657 5655 5653 5651 5649 5647 5645 5642 5639 5636 5634 5633 5632 5630 5626 5621 5617 5614 5613 5614 5612 5610 5607 5604 5599 5599 5597 5595
5678 5676 5673 5670 5667 5664 5661 5658 5655 5652 5648 5645 5642 5640 5637 5636 5633 5631 5628 5625 5623 5622 5620 5617 5614 5611 5609 5608 5602 5599 5598 5596 5594 5590 5586 5585 5585 5583
5668 5667 5664 5661 5658 5655 5652 5648 5645 5642 5638 5635 5632 5630 5627 5624 5622 5619 5616 5613 5611 5609 5608 5605 5601 5597 5594 5594 5594 5585 5582 5581 5578 5577 5575 5573 5571 5571
5658 5656 5653 5651 5648 5644 5642 5639 5635 5632 5628 5625 5622 5618 5615 5612 5610 5607 5605 5601 5599 5597 5594 5591 5587 5583 5578 5577 5577 5575 5568 5566 5564 5562 5561 5560 5559 5558
5646 5644 5641 5638 5635 5632 5629 5626 5623 5619 5615 5612 5609 5605 5602 5599 5597 5595 5592 5587 5583 5583 5580 5577 5572 5565 5563 5561 5561 5563 5560 5554 5549 5546 5546 5546 5546 5548
5633 5630 5627 5624 5621 5618 5615 5612 5609 5606 5602 5599 5595 5591 5588 5585 5583 5580 5578 5575 5572 5569 5566 5563 5559 5556 5553 5550 5550 5550 5549 5545 5541 5537 5534 5533 5532 5534
5617 5615 5612 5609 5606 5603 5600 5597 5594 5590 5587 5583 5580 5576 5573 5571 5568 5565 5563 5560 5558 5556 5554 5551 5549 5545 5543 5540 5539 5538 5537 5535 5533 5532 5531 5527 5523 5522